Location: Lake Arresoe
(56.0000°N, 12.5000°E)
Time: 11:17:59
(UTC+02:00)

Resurs 1-4 Rocket - Pass Details

Date: 16 August 2020
Orbit: 799 x 815 km, 98.6° (Epoch: 23 September)

Event Time Altitude Azimuth Distance (km) Brightness Sun altitude
Rises 01:26:01 0° 24° (NNE) 3,331 6.5 -20.3°
Reaches altitude 10° 01:29:10 10° 44° (NE) 2,392 5.2 -20.3°
Maximum altitude 01:32:41 18° 86° (E) 1,899 4.1 -20.2°
Enters shadow 01:35:32 12° 122° (ESE) 2,227 4.1 -20.2°
